Location: Göttingen
(51.5413°N, 9.9158°E)
Time: 17:11:37
(UTC+01:00)

Envisat - Visible Passes

Search period start: 22 January 2022 00:00
Search period end: 01 February 2022 00:00
Orbit: 764 x 766 km, 98.2° (Epoch: 22 January)

Date Brightness Start Highest point End Pass type
(mag) Time Alt. Az. Time Alt. Az. Time Alt. Az.
22 Jan 4.8 04:28:47 10° NNE 04:33:11 29° E 04:37:33 10° SSE visible
22 Jan 3.1 06:07:32 10° N 06:12:25 48° WNW 06:17:17 10° SW visible
22 Jan 5.7 17:28:51 10° SW 17:32:45 22° W 17:36:42 10° NW visible
23 Jan 5.7 03:53:01 10° NE 03:55:52 15° E 03:58:41 10° ESE visible
23 Jan 2.9 05:30:30 10° NNE 05:35:38 89° ESE 05:40:44 10° SSW visible
23 Jan 4.3 07:10:38 10° NNW 07:14:00 18° NW 07:17:23 10° W visible
24 Jan 4.0 04:53:45 10° NNE 04:58:39 45° E 05:03:31 10° S visible
24 Jan 3.7 06:33:05 10° N 06:37:32 32° WNW 06:41:59 10° WSW visible
24 Jan 6.0 17:55:51 10° WSW 17:58:24 14° W 18:00:57 10° NW visible
25 Jan 5.1 04:17:25 10° NE 04:21:29 24° E 04:25:31 10° SE visible
25 Jan 3.0 05:55:52 10° N 06:00:52 59° WNW 06:05:51 10° SSW visible
26 Jan 5.9 03:42:14 10° ENE 03:44:05 12° E 03:45:56 10° ESE visible
26 Jan 3.1 05:18:55 10° NNE 05:24:02 73° ESE 05:29:06 10° S visible
26 Jan 4.2 06:58:46 10° N 07:02:33 21° WNW 07:06:20 10° WSW visible
27 Jan 4.3 04:42:16 10° NNE 04:46:59 37° E 04:51:41 10° SSE visible
27 Jan 3.4 06:21:21 10° N 06:26:01 38° WNW 06:30:41 10° SW visible
27 Jan 5.9 17:43:23 10° SW 17:46:38 17° W 17:49:55 10° NW visible
28 Jan 5.4 04:06:07 10° NE 04:09:45 19° E 04:13:22 10° SE visible
28 Jan 2.9 05:44:13 10° N 05:49:18 72° WNW 05:54:22 10° SSW visible
28 Jan 4.6 07:24:46 10° NNW 07:27:29 15° NW 07:30:12 10° W visible
29 Jan 3.5 05:07:21 10° NNE 05:12:24 59° E 05:17:24 10° S visible
29 Jan 4.0 06:46:58 10° N 06:51:05 25° WNW 06:55:11 10° WSW visible
29 Jan 6.5 18:11:51 10° W 18:12:19 10° W 18:12:47 10° WNW visible
30 Jan 4.7 04:30:49 10° NNE 04:35:18 30° E 04:39:45 10° SSE visible
30 Jan 3.2 06:09:39 10° N 06:14:29 46° WNW 06:19:19 10° SW visible
31 Jan 5.7 03:54:57 10° NE 03:57:59 16° E 04:01:02 10° ESE visible
31 Jan 2.9 05:32:36 10° NNE 05:37:43 87° WNW 05:42:48 10° SSW visible
31 Jan 4.4 07:12:48 10° NNW 07:16:03 17° NW 07:19:18 10° W visible
